Regional Weather Roundup
Issued by NWS Goodland, KS

Home | Current Version | Previous Version | Graphics & Text | Print | Product List | Glossary On
Versions: 1 2 3 4 5 6 7 8 9 10 11 12 13 14 15 16 17 18 19 20 21 22 23 24 25 26 27 28 29 30 31 32 33 34 35 36 37 38 39 40 41 42 43 44 45 46 47 48 49 50
000
ASUS43 KGLD 051808
RWRGLD

GOODLAND FORECAST AREA HOURLY WEATHER ROUNDUP
NATIONAL WEATHER SERVICE GOODLAND KS
1100 AM MST THU MAR 05 2015

...OFFICIAL OBSERVATIONS...

CITY           SKY/WX    TMP DP  RH WIND       PRES   REMARKS
GOODLAND KS    SUNNY     41  11  29 SW9       30.30F
HILL CITY KS   FAIR      36  11  35 VRB5      30.39F
IMPERIAL NEB     N/A     39   8  27 W9        30.27F
MCCOOK NEB     SUNNY     35  14  42 VRB6      30.33F
AKRON CO       MOSUNNY   39   9  29 SW9       30.23S
BURLINGTON CO  SUNNY     38  13  35 SW15      30.28F
LIMON CO       MOSUNNY   27   6  41 CALM      30.24S
$$

...UNOFFICIAL OBSERVATIONS...

CITY           SKY/WX    TMP DP  RH WIND       PRES   REMARKS
COLBY KS       SUNNY     43  12  28 SW10G18   30.32F
GOVE KS          N/A     40  32  73 MISG        N/A
NORTON KS      SUNNY     34   7  32 SE7       30.36F
SHARON SPRINGS   N/A     39  23  53 SW5G13      N/A
KIT CARSON CO    N/A     33  17  51 MISG        N/A
YUMA CO          N/A     41   7  24 SW17        N/A
$$



USA.gov is the U.S. government's official web portal to all federal, state and local government web resources and services.